DW8947 Weather Reports


time (UTC)temp
C
wind
direction
speed
KPH
gust
KPH
rain 1hr
cm
rain 24hr
cm
rain mn
cm
humidity
%
barometer
mb
20260831053204 15 177 0.0 3.2 0.00 0.00 0.00 81 1015.9
20260831051704 15 214 0.0 3.2 0.00 0.00 0.00 79 1016.1
20260831050704 15 88 0.0 3.2 0.00 0.00 0.00 80 1016.1
20260831045704 15 96 0.0 3.2 0.00 0.00 0.00 78 1016.2
20260831043704 15 70 0.0 3.2 0.00 0.00 0.00 77 1016.3
20260831042204 15 113 0.0 3.2 0.00 0.00 0.00 76 1016.2
20260831040704 16 114 0.0 3.2 0.00 0.00 0.00 75 1016.2
20260831035204 16 119 0.0 3.2 0.00 0.00 0.00 75 1016.2
20260831034204 16 26 0.0 3.2 0.00 0.00 0.00 75 1016.2
20260831033704 16 58 0.0 3.2 0.00 0.00 0.00 76 1016.2
20260831032203 16 48 0.0 3.2 0.00 0.00 0.00 74 1016.2
20260831031704 16 48 0.0 3.2 0.00 0.00 0.00 75 1016.2
20260831030703 17 16 1.6 4.8 0.00 0.00 0.00 72 1016.2
20260831030204 17 48 0.0 3.2 0.00 0.00 0.00 74 1016.2
20260831025704 17 48 0.0 3.2 0.00 0.00 0.00 74 1016.2
20260831025204 17 102 0.0 3.2 0.00 0.00 0.00 74 1016.2
20260831024704 17 137 0.0 3.2 0.00 0.00 0.00 73 1016.3
20260831023704 17 179 0.0 3.2 0.00 0.00 0.00 70 1016.3
20260831023204 17 179 0.0 3.2 0.00 0.00 0.00 70 1016.3
20260831022704 17 179 0.0 3.2 0.00 0.00 0.00 70 1016.3
20260831022203 18 179 0.0 3.2 0.00 0.00 0.00 70 1016.3
20260831020704 18 179 0.0 3.2 0.00 0.00 0.00 70 1016.4
20260831015704 18 185 0.0 3.2 0.00 0.00 0.00 68 1016.4
20260831015204 18 185 0.0 1.6 0.00 0.00 0.00 67 1016.4
20260831014704 19 185 0.0 3.2 0.00 0.00 0.00 66 1016.5
20260831014204 19 185 0.0 0.0 0.00 0.00 0.00 66 1016.4
20260831013703 19 185 0.0 3.2 0.00 0.00 0.00 64 1016.5
20260831013204 19 185 0.0 3.2 0.00 0.00 0.00 64 1016.5
20260831012703 20 185 0.0 0.0 0.00 0.00 0.00 64 1016.6
20260831010704 20 208 0.0 1.6 0.00 0.00 0.00 61 1016.7
20260831005703 20 208 0.0 3.2 0.00 0.00 0.00 59 1016.8
20260831005204 20 178 0.0 3.2 0.00 0.00 0.00 62 1016.8
20260831004704 20 221 0.0 3.2 0.00 0.00 0.00 59 1016.7
20260831002703 20 136 0.0 3.2 0.00 0.00 0.00 57 1016.9
20260831002204 20 211 0.0 3.2 0.00 0.00 0.00 56 1016.9
20260831001203 20 295 0.0 3.2 0.00 0.00 0.00 59 1016.9
20260831000705 20 68 0.0 3.2 0.00 0.00 0.00 60 1016.9
20260830234703 20 13 1.6 3.2 0.00 0.00 0.00 56 1017.0
20260830234207 20 14 0.0 3.2 0.00 0.00 0.00 57 1017.0
20260830233707 20 134 1.6 3.2 0.00 0.00 0.00 63 1017.1
20260830232206 20 69 0.0 3.2 0.00 0.00 0.00 62 1017.2
20260830231706 20 69 0.0 3.2 0.00 0.00 0.00 61 1017.2
20260830230706 20 83 1.6 4.8 0.00 0.00 0.00 60 1017.3
20260830225707 20 145 0.0 3.2 0.00 0.00 0.00 62 1017.3
20260830225206 20 98 0.0 3.2 0.00 0.00 0.00 62 1017.2
20260830224706 20 16 0.0 3.2 0.00 0.00 0.00 56 1017.2
20260830222206 20 246 0.0 3.2 0.00 0.00 0.00 59 1017.6
20260830221706 20 246 0.0 3.2 0.00 0.00 0.00 56 1017.8
20260830221206 20 246 0.0 1.6 0.00 0.00 0.00 61 1017.8
20260830215706 20 194 0.0 3.2 0.00 0.00 0.00 60 1017.9
20260830212706 19 183 0.0 3.2 0.00 0.00 0.00 63 1018.1
20260830211206 19 173 0.0 3.2 0.00 0.00 0.00 62 1018.2
20260830210206 20 275 1.6 3.2 0.00 0.00 0.00 62 1018.3
20260830205207 19 275 1.6 1.6 0.00 0.00 0.00 62 1018.2
20260830204706 20 284 1.6 3.2 0.00 0.00 0.00 64 1018.2
20260830204206 20 71 0.0 3.2 0.00 0.00 0.00 61 1018.2
20260830203706 20 152 1.6 3.2 0.00 0.00 0.00 62 1018.3
20260830203207 20 152 0.0 3.2 0.00 0.00 0.00 62 1018.3
20260830202207 19 184 0.0 3.2 0.00 0.00 0.00 65 1018.5
20260830201206 18 246 0.0 3.2 0.00 0.00 0.00 65 1018.6
20260830200706 18 246 1.6 3.2 0.00 0.00 0.00 65 1018.6
20260830194709 19 159 1.6 3.2 0.00 0.00 0.00 66 1018.7
20260830194205 19 140 1.6 1.6 0.00 0.00 0.00 64 1018.7
20260830191205 17 164 0.0 1.6 0.00 0.00 0.00 70 1018.9
20260830185204 17 204 0.0 1.6 0.00 0.00 0.00 73 1019.0
20260830184705 17 225 1.6 3.2 0.00 0.00 0.00 75 1019.1
20260830184205 16 279 1.6 1.6 0.00 0.00 0.00 74 1019.1
20260830183705 16 277 1.6 3.2 0.00 0.00 0.00 74 1019.0
20260830182705 16 281 1.6 3.2 0.00 0.00 0.00 76 1019.1
20260830181204 16 273 1.6 3.2 0.00 0.00 0.00 81 1018.9
20260830180704 16 248 0.0 3.2 0.00 0.00 0.00 82 1018.8
20260830175705 16 214 0.0 3.2 0.00 0.00 0.00 82 1018.9
20260830174205 15 84 0.0 1.6 0.00 0.00 0.00 84 1018.8
20260830173705 15 24 1.6 3.2 0.00 0.00 0.00 82 1018.8
20260830173205 15 244 0.0 3.2 0.00 0.00 0.00 82 1018.9
20260830172205 15 295 0.0 3.2 0.00 0.00 0.00 82 1019.0
20260830171205 15 204 0.0 3.2 0.00 0.00 0.00 83 1019.0
20260830164705 15 172 0.0 3.2 0.00 0.00 0.00 85 1018.8
20260830163205 14 172 0.0 3.2 0.00 0.00 0.00 85 1018.9
20260830162705 14 172 0.0 3.2 0.00 0.00 0.00 86 1018.9
20260830162204 14 172 0.0 1.6 0.00 0.00 0.00 86 1018.9
20260830161705 14 172 0.0 3.2 0.00 0.00 0.00 86 1018.9
20260830160204 14 293 0.0 3.2 0.00 0.00 0.00 87 1019.0
20260830155204 13 306 0.0 3.2 0.00 0.00 0.00 87 1018.9
20260830154205 13 306 0.0 3.2 0.00 0.00 0.00 88 1018.9
20260830153205 13 306 0.0 3.2 0.00 0.00 0.00 88 1018.8
20260830152205 13 306 0.0 3.2 0.00 0.00 0.00 90 1018.7
20260830151204 13 306 0.0 0.0 0.00 0.00 0.00 91 1018.8
20260830150204 13 306 0.0 0.0 0.00 0.00 0.00 92 1018.9
20260830145204 13 306 0.0 0.0 0.00 0.00 0.00 93 1018.8
20260830144705 12 306 0.0 0.0 0.00 0.00 0.00 93 1018.9
20260830144205 12 306 0.0 0.0 0.00 0.00 0.00 93 1018.8
20260830143704 12 306 0.0 0.0 0.00 0.00 0.00 93 1018.7
20260830142204 12 306 0.0 0.0 0.00 0.00 0.00 93 1018.6
20260830141205 12 306 0.0 0.0 0.00 0.00 0.00 92 1018.5
20260830140204 12 306 0.0 0.0 0.00 0.03 0.00 92 1018.4
20260830135204 12 306 0.0 0.0 0.00 0.05 0.00 92 1018.4
20260830134705 12 306 0.0 0.0 0.00 0.08 0.00 92 1018.3
20260830133704 12 306 0.0 0.0 0.00 0.08 0.00 91 1018.3
20260830125705 12 306 0.0 0.0 0.00 0.20 0.00 90 1018.3
20260830123705 13 306 0.0 0.0 0.00 0.25 0.00 89 1018.2
20260830122704 13 306 0.0 0.0 0.00 0.28 0.00 89 1018.2
20260830122204 13 305 0.0 0.0 0.00 0.30 0.00 89 1018.1
20260830121204 13 306 0.0 0.0 0.00 0.38 0.00 89 1018.1
20260830120205 13 305 0.0 0.0 0.00 0.46 0.00 89 1018.2
20260830114204 13 306 0.0 0.0 0.00 0.79 0.00 89 1018.3
20260830112705 13 306 0.0 0.0 0.00 0.97 0.00 90 1018.3
20260830112204 13 306 0.0 0.0 0.00 0.97 0.00 89 1018.2
20260830111704 13 306 0.0 0.0 0.00 0.97 0.00 89 1018.2
20260830110705 13 306 0.0 0.0 0.00 0.97 0.00 89 1018.1
20260830110205 13 306 0.0 0.0 0.00 0.97 0.00 89 1018.1
20260830105205 13 305 0.0 0.0 0.00 0.97 0.00 89 1018.1
20260830104705 13 306 0.0 0.0 0.00 0.97 0.00 89 1018.0
20260830104205 13 306 0.0 0.0 0.00 0.97 0.00 89 1018.0
20260830103205 13 306 0.0 0.0 0.00 0.97 0.00 88 1018.0
20260830102704 13 305 0.0 0.0 0.00 0.97 0.00 89 1018.1
20260830101705 13 306 0.0 1.6 0.00 0.97 0.00 89 1018.1
20260830100704 13 306 0.0 0.0 0.00 0.97 0.00 89 1018.0
20260830095705 13 306 0.0 1.6 0.00 0.97 0.00 88 1018.1
20260830095204 13 306 0.0 3.2 0.00 0.97 0.00 88 1018.0
20260830091705 13 306 0.0 0.0 0.00 0.97 0.00 89 1018.0
20260830091204 13 306 0.0 1.6 0.00 0.97 0.00 89 1018.0
20260830085204 13 306 0.0 3.2 0.00 0.97 0.00 89 1018.0
20260830084705 13 305 0.0 3.2 0.00 0.97 0.00 90 1017.9
20260830084205 13 305 0.0 1.6 0.00 0.97 0.00 89 1017.9
20260830083705 13 306 0.0 3.2 0.00 0.97 0.00 89 1017.9
20260830082705 13 306 0.0 3.2 0.00 0.97 0.00 89 1017.9
20260830081705 13 304 0.0 3.2 0.00 0.97 0.00 90 1017.9
20260830080705 13 304 0.0 1.6 0.00 0.97 0.00 90 1017.9
20260830075205 13 304 1.6 3.2 0.00 0.97 0.00 90 1017.7
20260830073705 12 323 0.0 1.6 0.00 0.97 0.00 90 1017.5
20260830073204 12 311 1.6 1.6 0.00 0.97 0.00 90 1017.6
20260830071705 13 212 0.0 3.2 0.00 0.97 0.00 89 1017.6
20260830070705 13 34 0.0 3.2 0.00 0.97 0.00 88 1017.6
20260830070205 13 34 0.0 3.2 0.00 0.97 0.00 89 1017.5
20260830065205 13 34 0.0 3.2 0.00 0.97 0.97 88 1017.6
20260830064705 13 34 0.0 3.2 0.00 0.97 0.97 88 1017.5
20260830063205 13 37 1.6 3.2 0.00 0.97 0.97 88 1017.4
20260830062704 13 320 0.0 3.2 0.00 0.97 0.97 88 1017.4
20260830061705 13 267 0.0 3.2 0.00 0.97 0.97 87 1017.3
20260830061204 13 306 0.0 3.2 0.00 0.97 0.97 88 1017.3
20260830060705 13 306 0.0 3.2 0.00 0.97 0.97 88 1017.3
20260830055205 13 25 0.0 3.2 0.00 0.97 0.97 87 1017.3
20260830054704 13 302 0.0 3.2 0.00 0.97 0.97 87 1017.4
20260830054205 13 302 0.0 3.2 0.00 0.97 0.97 87 1017.4
20260830053705 13 34 0.0 3.2 0.00 0.97 0.97 87 1017.3